When you browse on this site, cookies collect data to enhance your experience and personalize the content and advertising you see.
Visit our Privacy Policy to learn more. By continuing to use the site, you agree to this use of cookies and data.

Meteo orario Sumgayit

Oggi, 23 Settembre, Mercoledi

Tempo Temperatura Precipitazioni Vento Pressione Umidità
00:00 +19°C° 0 mm 0 m/s 744 mm Hg 72%
01:00 +19°C° 0 mm 0 m/s 744 mm Hg 71%
02:00 +19°C° 0 mm 0 m/s 743 mm Hg 70%
03:00 +21°C° 0 mm 1 m/s 743 mm Hg 69%
04:00 +21°C° 0 mm 1 m/s 743 mm Hg 70%
05:00 +21°C° 0 mm 1 m/s 743 mm Hg 71%
06:00 +20°C° 0 mm 1 m/s 743 mm Hg 71%
07:00 +20°C° 0 mm 2 m/s 743 mm Hg 66%
08:00 +21°C° 0 mm 2 m/s 743 mm Hg 61%
09:00 +23°C° 0 mm 2 m/s 744 mm Hg 56%
10:00 +25°C° 0 mm 2 m/s 743 mm Hg 51%
11:00 +26°C° 0 mm 3 m/s 743 mm Hg 47%
12:00 +27°C° 0 mm 3 m/s 743 mm Hg 43%
13:00 +27°C° 0 mm 3 m/s 742 mm Hg 41%
14:00 +27°C° 0 mm 4 m/s 742 mm Hg 38%
15:00 +27°C° 0 mm 4 m/s 741 mm Hg 36%
16:00 +26°C° 0 mm 4 m/s 741 mm Hg 40%
17:00 +25°C° 0 mm 4 m/s 741 mm Hg 43%
18:00 +23°C° 0 mm 4 m/s 741 mm Hg 46%
19:00 +24°C° 0 mm 3 m/s 741 mm Hg 49%
20:00 +23°C° 0 mm 2 m/s 741 mm Hg 52%
21:00 +23°C° 0 mm 1 m/s 741 mm Hg 54%
22:00 +23°C° 0 mm 1 m/s 741 mm Hg 55%
23:00 +22°C° 0 mm 1 m/s 741 mm Hg 55%

Domani, 24 Settembre, Giovedi

Tempo Temperatura Precipitazioni Vento Pressione Umidità
00:00 +22°C° 0 mm 1 m/s 741 mm Hg 55%
01:00 +22°C° 0 mm 1 m/s 740 mm Hg 56%
02:00 +21°C° 0 mm 1 m/s 740 mm Hg 56%
03:00 +21°C° 0 mm 1 m/s 740 mm Hg 57%
04:00 +21°C° 0 mm 1 m/s 740 mm Hg 59%
05:00 +21°C° 0 mm 1 m/s 740 mm Hg 61%
06:00 +20°C° 0 mm 1 m/s 740 mm Hg 63%
07:00 +22°C° 0 mm 1 m/s 741 mm Hg 56%
08:00 +24°C° 0 mm 2 m/s 741 mm Hg 49%
09:00 +25°C° 0 mm 2 m/s 741 mm Hg 41%
10:00 +26°C° 0 mm 3 m/s 741 mm Hg 38%
11:00 +27°C° 0 mm 3 m/s 741 mm Hg 35%
12:00 +28°C° 0 mm 4 m/s 740 mm Hg 32%
13:00 +28°C° 0 mm 4 m/s 740 mm Hg 31%
14:00 +28°C° 0 mm 4 m/s 740 mm Hg 31%
15:00 +28°C° 0 mm 5 m/s 739 mm Hg 30%
16:00 +27°C° 0 mm 4 m/s 739 mm Hg 35%
17:00 +26°C° 0 mm 3 m/s 739 mm Hg 39%
18:00 +25°C° 0 mm 3 m/s 739 mm Hg 43%
19:00 +24°C° 0 mm 2 m/s 739 mm Hg 45%
20:00 +24°C° 0 mm 1 m/s 740 mm Hg 47%
21:00 +21°C° 0 mm 0 m/s 740 mm Hg 49%
22:00 +21°C° 0 mm 0 m/s 740 mm Hg 47%
23:00 +23°C° 0 mm 1 m/s 739 mm Hg 46%

Dopodomani, 25 Settembre, Venerdi

Tempo Temperatura Precipitazioni Vento Pressione Umidità
00:00 +22°C° 0 mm 1 m/s 739 mm Hg 44%
01:00 +22°C° 0 mm 1 m/s 739 mm Hg 42%
02:00 +22°C° 0 mm 1 m/s 739 mm Hg 41%
03:00 +21°C° 0 mm 2 m/s 739 mm Hg 39%
04:00 +21°C° 0 mm 2 m/s 739 mm Hg 39%
05:00 +20°C° 0 mm 2 m/s 739 mm Hg 39%
06:00 +20°C° 0 mm 2 m/s 739 mm Hg 39%
07:00 +23°C° 0 mm 2 m/s 739 mm Hg 35%
08:00 +25°C° 0 mm 2 m/s 739 mm Hg 31%
09:00 +26°C° 0 mm 2 m/s 739 mm Hg 27%
10:00 +27°C° 0 mm 3 m/s 739 mm Hg 26%
11:00 +28°C° 0 mm 3 m/s 739 mm Hg 25%
12:00 +29°C° 0 mm 3 m/s 739 mm Hg 23%
13:00 +29°C° 0 mm 4 m/s 739 mm Hg 26%
14:00 +28°C° 0 mm 4 m/s 738 mm Hg 28%
15:00 +28°C° 0 mm 5 m/s 738 mm Hg 30%
16:00 +27°C° 0 mm 4 m/s 738 mm Hg 31%
17:00 +26°C° 0 mm 3 m/s 738 mm Hg 33%
18:00 +25°C° 0 mm 2 m/s 737 mm Hg 35%
19:00 +25°C° 0 mm 2 m/s 738 mm Hg 35%
20:00 +24°C° 0 mm 2 m/s 738 mm Hg 35%
21:00 +24°C° 0 mm 2 m/s 738 mm Hg 35%
22:00 +23°C° 0 mm 2 m/s 737 mm Hg 35%
23:00 +23°C° 0 mm 2 m/s 737 mm Hg 35%

26 Settembre, Sabato

Tempo Temperatura Precipitazioni Vento Pressione Umidità
00:00 +22°C° 0 mm 3 m/s 737 mm Hg 35%
01:00 +21°C° 0 mm 2 m/s 737 mm Hg 34%
02:00 +21°C° 0 mm 2 m/s 736 mm Hg 33%
03:00 +21°C° 0 mm 2 m/s 736 mm Hg 33%
04:00 +21°C° 0 mm 2 m/s 736 mm Hg 34%
05:00 +21°C° 0 mm 1 m/s 736 mm Hg 35%
06:00 +21°C° 0 mm 1 m/s 736 mm Hg 36%
07:00 +23°C° 0 mm 1 m/s 737 mm Hg 33%
08:00 +24°C° 0 mm 2 m/s 737 mm Hg 30%
09:00 +26°C° 0 mm 2 m/s 737 mm Hg 28%
10:00 +26°C° 0 mm 3 m/s 737 mm Hg 27%
11:00 +27°C° 0 mm 3 m/s 737 mm Hg 27%
12:00 +28°C° 0 mm 4 m/s 737 mm Hg 26%
13:00 +28°C° 0 mm 4 m/s 737 mm Hg 28%
14:00 +27°C° 0 mm 5 m/s 736 mm Hg 29%
15:00 +27°C° 0 mm 5 m/s 736 mm Hg 31%
16:00 +26°C° 0 mm 4 m/s 736 mm Hg 34%
17:00 +25°C° 0 mm 4 m/s 736 mm Hg 37%
18:00 +24°C° 0 mm 3 m/s 736 mm Hg 41%
19:00 +24°C° 0 mm 3 m/s 737 mm Hg 41%
20:00 +24°C° 0 mm 3 m/s 737 mm Hg 42%
21:00 +22°C° 0 mm 3 m/s 737 mm Hg 43%
22:00 +22°C° 0 mm 4 m/s 737 mm Hg 44%
23:00 +22°C° 0 mm 5 m/s 737 mm Hg 44%

27 Settembre, Domenica

Tempo Temperatura Precipitazioni Vento Pressione Umidità
00:00 +21°C° 0 mm 5 m/s 737 mm Hg 45%
01:00 +21°C° 0 mm 5 m/s 737 mm Hg 47%
02:00 +21°C° 0 mm 4 m/s 737 mm Hg 50%
03:00 +20°C° 0 mm 3 m/s 737 mm Hg 52%
04:00 +20°C° 0 mm 3 m/s 737 mm Hg 52%
05:00 +20°C° 0 mm 3 m/s 737 mm Hg 52%
06:00 +19°C° 0 mm 3 m/s 738 mm Hg 52%
07:00 +20°C° 0 mm 4 m/s 738 mm Hg 48%
08:00 +22°C° 0 mm 4 m/s 738 mm Hg 43%
09:00 +23°C° 0 mm 4 m/s 739 mm Hg 39%
10:00 +23°C° 0 mm 5 m/s 739 mm Hg 38%
11:00 +25°C° 0 mm 5 m/s 739 mm Hg 36%
12:00 +26°C° 0 mm 5 m/s 739 mm Hg 34%
13:00 +24°C° 0 mm 6 m/s 739 mm Hg 35%
14:00 +24°C° 0 mm 6 m/s 739 mm Hg 36%
15:00 +23°C° 0 mm 7 m/s 739 mm Hg 36%
16:00 +22°C° 0 mm 7 m/s 739 mm Hg 39%
17:00 +21°C° 0 mm 7 m/s 739 mm Hg 43%
18:00 +20°C° 0 mm 7 m/s 740 mm Hg 46%
19:00 +20°C° 0 mm 7 m/s 740 mm Hg 44%
20:00 +20°C° 0 mm 7 m/s 740 mm Hg 43%
21:00 +20°C° 0 mm 6 m/s 741 mm Hg 41%
22:00 +20°C° 0 mm 5 m/s 741 mm Hg 39%
23:00 +19°C° 0 mm 5 m/s 741 mm Hg 38%

28 Settembre, Lunedi

Tempo Temperatura Precipitazioni Vento Pressione Umidità
00:00 +19°C° 0 mm 4 m/s 741 mm Hg 36%
01:00 +19°C° 0 mm 4 m/s 741 mm Hg 38%
02:00 +19°C° 0 mm 4 m/s 741 mm Hg 40%
03:00 +18°C° 0 mm 3 m/s 741 mm Hg 42%
04:00 +18°C° 0 mm 3 m/s 741 mm Hg 46%
05:00 +18°C° 0 mm 3 m/s 742 mm Hg 49%
06:00 +18°C° 0 mm 3 m/s 742 mm Hg 53%
07:00 +19°C° 0 mm 3 m/s 742 mm Hg 48%
08:00 +20°C° 0 mm 3 m/s 743 mm Hg 43%
09:00 +22°C° 0 mm 3 m/s 743 mm Hg 37%
10:00 +22°C° 0 mm 3 m/s 743 mm Hg 35%
11:00 +23°C° 0 mm 4 m/s 743 mm Hg 32%
12:00 +25°C° 0 mm 4 m/s 743 mm Hg 30%
13:00 +25°C° 0 mm 5 m/s 743 mm Hg 31%
14:00 +25°C° 0 mm 5 m/s 743 mm Hg 33%
15:00 +23°C° 0 mm 5 m/s 743 mm Hg 35%
16:00 +22°C° 0 mm 5 m/s 743 mm Hg 38%
17:00 +21°C° 0 mm 4 m/s 743 mm Hg 41%
18:00 +20°C° 0 mm 4 m/s 743 mm Hg 45%
19:00 +20°C° 0 mm 4 m/s 744 mm Hg 44%
20:00 +20°C° 0 mm 4 m/s 744 mm Hg 44%
21:00 +19°C° 0 mm 4 m/s 744 mm Hg 44%
22:00 +19°C° 0 mm 4 m/s 744 mm Hg 43%
23:00 +19°C° 0 mm 4 m/s 744 mm Hg 43%
Mostrare altro